Time,TemperatureF,DewpointF,PressureIn,WindDirection,WindDirectionDegrees,WindSpeedMPH,WindSpeedGustMPH,Humidity,HourlyPrecipIn,Conditions,Clouds,dailyrainin,SoftwareType,DateUTC
2014-08-22 00:04:00,63.7,60.4,29.93,WSW,255,0.0,2.0,89,0.00,CLR,,0.00,WeatherDisplay:10.37,2014-08-21 22:04:00,
2014-08-22 00:09:00,63.6,60.0,29.93,West,264,0.0,3.0,88,0.00,CLR,,0.00,WeatherDisplay:10.37,2014-08-21 22:09:00,
2014-08-22 00:14:00,63.7,60.1,29.93,West,273,0.0,4.0,88,0.00,CLR,,0.00,WeatherDisplay:10.37,2014-08-21 22:14:00,
2014-08-22 00:19:00,63.7,60.1,29.93,West,272,1.0,0.0,88,0.00,CLR,,0.00,WeatherDisplay:10.37,2014-08-21 22:19:00,
2014-08-22 00:24:00,63.7,60.1,29.93,West,272,1.0,1.0,88,0.00,CLR,,0.00,WeatherDisplay:10.37,2014-08-21 22:24:00,
2014-08-22 00:29:00,63.8,60.2,29.94,West,272,0.0,1.0,88,0.00,CLR,,0.00,WeatherDisplay:10.37,2014-08-21 22:29:00,
2014-08-22 00:34:00,63.9,59.9,29.94,West,272,0.0,0.0,87,0.00,CLR,,0.00,WeatherDisplay:10.37,2014-08-21 22:34:00,
2014-08-22 00:39:00,63.9,59.9,29.94,West,272,0.0,0.0,87,0.00,CLR,,0.00,WeatherDisplay:10.37,2014-08-21 22:39:00,
2014-08-22 00:44:00,63.9,60.2,29.94,West,272,0.0,0.0,88,0.00,CLR,,0.00,WeatherDisplay:10.37,2014-08-21 22:44:00,
2014-08-22 00:49:00,63.9,60.2,29.94,West,272,0.0,2.0,88,0.00,CLR,,0.00,WeatherDisplay:10.37,2014-08-21 22:49:00,
2014-08-22 00:54:00,63.9,59.9,29.94,West,272,0.0,0.0,87,0.00,CLR,,0.00,WeatherDisplay:10.37,2014-08-21 22:54:00,
2014-08-22 00:59:00,63.9,59.9,29.94,West,272,0.0,2.0,87,0.00,CLR,,0.00,WeatherDisplay:10.37,2014-08-21 22:59:00,
2014-08-22 01:04:00,63.9,59.9,29.94,West,272,0.0,0.0,87,0.00,CLR,,0.00,WeatherDisplay:10.37,2014-08-21 23:04:00,
2014-08-22 01:09:00,63.9,59.9,29.94,West,271,0.0,2.0,87,0.00,CLR,,0.00,WeatherDisplay:10.37,2014-08-21 23:09:00,
2014-08-22 01:14:00,63.9,59.9,29.94,West,271,0.0,1.0,87,0.00,CLR,,0.00,WeatherDisplay:10.37,2014-08-21 23:14:00,
2014-08-22 01:19:00,63.9,60.2,29.94,West,271,0.0,0.0,88,0.00,CLR,,0.00,WeatherDisplay:10.37,2014-08-21 23:19:00,
2014-08-22 01:24:00,63.7,59.7,29.94,West,271,0.0,0.0,87,0.00,CLR,,0.00,WeatherDisplay:10.37,2014-08-21 23:24:00,
2014-08-22 01:29:00,63.5,59.6,29.94,West,271,0.0,2.0,87,0.00,CLR,,0.00,WeatherDisplay:10.37,2014-08-21 23:29:00,
2014-08-22 01:34:00,63.3,59.7,29.93,West,270,0.0,0.0,88,0.00,CLR,,0.00,WeatherDisplay:10.37,2014-08-21 23:34:00,
2014-08-22 01:39:00,63.1,59.5,29.93,WSW,248,0.0,3.0,88,0.00,CLR,,0.00,WeatherDisplay:10.37,2014-08-21 23:39:00,
2014-08-22 01:44:00,63.0,59.7,29.94,ESE,119,0.0,0.0,89,0.00,CLR,,0.00,WeatherDisplay:10.37,2014-08-21 23:44:00,
2014-08-22 01:49:00,62.8,59.5,29.94,ESE,121,0.0,2.0,89,0.00,CLR,,0.00,WeatherDisplay:10.37,2014-08-21 23:49:00,
2014-08-22 01:54:00,62.4,59.4,29.94,SSE,156,0.0,2.0,90,0.00,CLR,,0.00,WeatherDisplay:10.37,2014-08-21 23:54:00,
2014-08-22 01:59:00,62.2,59.3,29.94,South,189,0.0,2.0,90,0.00,CLR,,0.00,WeatherDisplay:10.37,2014-08-21 23:59:00,
2014-08-22 02:04:00,62.1,59.1,29.94,SW,219,0.0,0.0,90,0.00,CLR,,0.00,WeatherDisplay:10.37,2014-08-22 00:04:00,
2014-08-22 02:14:00,61.9,59.2,29.94,SW,234,0.0,0.0,91,0.00,CLR,,0.00,WeatherDisplay:10.37,2014-08-22 00:14:00,
2014-08-22 02:19:00,61.6,59.2,29.94,SW,234,0.0,0.0,92,0.00,CLR,,0.00,WeatherDisplay:10.37,2014-08-22 00:19:00,
2014-08-22 02:24:00,61.5,59.2,29.94,SW,234,0.0,0.0,92,0.00,CLR,,0.00,WeatherDisplay:10.37,2014-08-22 00:24:00,
2014-08-22 02:29:00,61.5,59.1,29.94,SW,234,0.0,1.0,92,0.00,CLR,,0.00,WeatherDisplay:10.37,2014-08-22 00:29:00,
2014-08-22 02:39:00,61.3,59.3,29.93,SW,234,0.0,0.0,93,0.00,CLR,,0.00,WeatherDisplay:10.37,2014-08-22 00:39:00,
2014-08-22 02:44:00,61.3,59.3,29.93,SW,234,0.0,0.0,93,0.00,CLR,,0.00,WeatherDisplay:10.37,2014-08-22 00:44:00,
2014-08-22 02:49:00,61.3,59.3,29.93,SW,234,0.0,0.0,93,0.00,CLR,,0.00,WeatherDisplay:10.37,2014-08-22 00:49:00,
2014-08-22 02:54:00,61.2,59.2,29.93,SW,234,0.0,0.0,93,0.00,CLR,,0.00,WeatherDisplay:10.37,2014-08-22 00:54:00,
2014-08-22 02:59:00,61.2,59.1,29.93,SW,234,0.0,0.0,93,0.00,CLR,,0.00,WeatherDisplay:10.37,2014-08-22 00:59:00,
2014-08-22 03:04:00,61.2,59.1,29.93,SW,234,0.0,0.0,93,0.00,CLR,,0.00,WeatherDisplay:10.37,2014-08-22 01:04:00,
2014-08-22 03:14:00,60.8,58.8,29.93,SW,234,0.0,0.0,93,0.00,CLR,,0.00,WeatherDisplay:10.37,2014-08-22 01:14:00,
2014-08-22 03:19:00,60.6,58.6,29.93,SW,234,0.0,0.0,93,0.00,CLR,,0.00,WeatherDisplay:10.37,2014-08-22 01:19:00,
2014-08-22 03:24:00,60.6,58.9,29.93,SW,234,0.0,0.0,94,0.00,CLR,,0.00,WeatherDisplay:10.37,2014-08-22 01:24:00,
2014-08-22 03:29:00,60.5,58.8,29.93,SW,234,0.0,0.0,94,0.00,CLR,,0.00,WeatherDisplay:10.37,2014-08-22 01:29:00,
2014-08-22 03:34:00,60.4,58.7,29.93,SW,234,0.0,0.0,94,0.00,CLR,,0.00,WeatherDisplay:10.37,2014-08-22 01:34:00,
2014-08-22 03:39:00,60.4,59.0,29.93,SW,234,0.0,0.0,95,0.00,CLR,,0.00,WeatherDisplay:10.37,2014-08-22 01:39:00,
2014-08-22 03:44:00,60.6,59.1,29.93,SW,234,0.0,0.0,95,0.00,CLR,,0.00,WeatherDisplay:10.37,2014-08-22 01:44:00,
2014-08-22 03:49:00,60.6,59.2,29.93,SW,234,0.0,0.0,95,0.00,CLR,,0.00,WeatherDisplay:10.37,2014-08-22 01:49:00,
2014-08-22 03:54:00,60.6,59.2,29.93,SW,234,0.0,2.0,95,0.00,CLR,,0.00,WeatherDisplay:10.37,2014-08-22 01:54:00,
2014-08-22 03:59:00,60.6,59.2,29.93,WSW,240,0.0,2.0,95,0.00,CLR,,0.00,WeatherDisplay:10.37,2014-08-22 01:59:00,
2014-08-22 04:04:00,60.8,59.4,29.93,WSW,244,0.0,0.0,95,0.00,CLR,,0.00,WeatherDisplay:10.37,2014-08-22 02:04:00,
2014-08-22 04:09:00,60.8,59.4,29.93,WSW,244,0.0,0.0,95,0.00,CLR,,0.00,WeatherDisplay:10.37,2014-08-22 02:09:00,
2014-08-22 04:14:00,60.8,59.1,29.93,WSW,244,0.0,0.0,94,0.00,CLR,,0.00,WeatherDisplay:10.37,2014-08-22 02:14:00,
2014-08-22 04:19:00,60.8,59.4,29.93,WSW,247,0.0,2.0,95,0.00,CLR,,0.00,WeatherDisplay:10.37,2014-08-22 02:19:00,
2014-08-22 04:24:00,60.9,59.1,29.93,WSW,252,0.0,0.0,94,0.00,CLR,,0.00,WeatherDisplay:10.37,2014-08-22 02:24:00,
2014-08-22 04:29:00,60.8,59.1,29.93,WSW,255,0.0,0.0,94,0.00,CLR,,0.00,WeatherDisplay:10.37,2014-08-22 02:29:00,
2014-08-22 04:34:00,60.8,59.4,29.93,WSW,255,0.0,0.0,95,0.00,CLR,,0.00,WeatherDisplay:10.37,2014-08-22 02:34:00,
2014-08-22 04:39:00,60.8,59.4,29.93,WSW,255,0.0,1.0,95,0.00,CLR,,0.00,WeatherDisplay:10.37,2014-08-22 02:39:00,
2014-08-22 04:44:00,61.0,59.5,29.93,WSW,255,0.0,2.0,95,0.00,CLR,,0.00,WeatherDisplay:10.37,2014-08-22 02:44:00,
2014-08-22 04:49:00,61.0,59.5,29.93,WSW,255,0.0,0.0,95,0.00,CLR,,0.00,WeatherDisplay:10.37,2014-08-22 02:49:00,
2014-08-22 04:54:00,61.0,59.5,29.93,WSW,255,0.0,0.0,95,0.00,CLR,,0.00,WeatherDisplay:10.37,2014-08-22 02:54:00,
2014-08-22 04:59:00,61.2,59.7,29.92,WSW,257,0.0,2.0,95,0.00,CLR,,0.00,WeatherDisplay:10.37,2014-08-22 02:59:00,
2014-08-22 05:04:00,61.2,59.7,29.92,West,264,0.0,1.0,95,0.00,CLR,,0.00,WeatherDisplay:10.37,2014-08-22 03:04:00,
2014-08-22 05:09:00,61.2,59.7,29.92,West,268,0.0,0.0,95,0.00,CLR,,0.00,WeatherDisplay:10.37,2014-08-22 03:09:00,
2014-08-22 05:14:00,61.2,59.7,29.92,West,268,0.0,0.0,95,0.00,CLR,,0.00,WeatherDisplay:10.37,2014-08-22 03:14:00,
2014-08-22 05:19:00,61.2,59.7,29.92,West,268,0.0,1.0,95,0.00,CLR,,0.00,WeatherDisplay:10.37,2014-08-22 03:19:00,
2014-08-22 05:24:00,61.3,59.9,29.92,West,268,0.0,0.0,95,0.00,CLR,,0.00,WeatherDisplay:10.37,2014-08-22 03:24:00,
2014-08-22 05:29:00,61.3,59.9,29.92,West,268,0.0,0.0,95,0.00,CLR,,0.00,WeatherDisplay:10.37,2014-08-22 03:29:00,
2014-08-22 05:34:00,61.4,59.9,29.92,West,267,0.0,0.0,95,0.00,CLR,,0.00,WeatherDisplay:10.37,2014-08-22 03:34:00,
2014-08-22 05:39:00,61.5,60.1,29.92,West,267,0.0,0.0,95,0.00,CLR,,0.00,WeatherDisplay:10.37,2014-08-22 03:39:00,
2014-08-22 05:49:00,61.5,60.1,29.92,West,267,0.0,0.0,95,0.00,CLR,,0.00,WeatherDisplay:10.37,2014-08-22 03:49:00,
2014-08-22 05:54:00,62.1,60.3,29.92,West,270,1.0,3.0,94,0.00,CLR,,0.00,WeatherDisplay:10.37,2014-08-22 03:54:00,
2014-08-22 05:59:00,62.2,60.5,29.92,WNW,302,1.0,3.0,94,0.00,CLR,,0.00,WeatherDisplay:10.37,2014-08-22 03:59:00,
2014-08-22 06:04:00,62.4,60.7,29.92,NW,320,1.0,3.0,94,0.00,CLR,,0.00,WeatherDisplay:10.37,2014-08-22 04:04:00,
2014-08-22 06:09:00,62.5,60.5,29.92,WNW,301,1.0,3.0,93,0.00,CLR,,0.00,WeatherDisplay:10.37,2014-08-22 04:09:00,
2014-08-22 06:14:00,62.8,60.7,29.92,WNW,302,1.0,2.0,93,0.00,CLR,,0.00,WeatherDisplay:10.37,2014-08-22 04:14:00,
2014-08-22 06:19:00,62.8,60.8,29.92,NW,310,0.0,3.0,93,0.00,CLR,,0.00,WeatherDisplay:10.37,2014-08-22 04:19:00,
2014-08-22 06:24:00,63.0,60.6,29.92,NW,315,0.0,4.0,92,0.00,CLR,,0.00,WeatherDisplay:10.37,2014-08-22 04:24:00,
2014-08-22 06:29:00,63.1,60.5,29.92,NW,313,1.0,2.0,91,0.00,CLR,,0.00,WeatherDisplay:10.37,2014-08-22 04:29:00,
2014-08-22 06:34:00,63.1,60.2,29.92,WNW,290,1.0,5.0,90,0.00,CLR,,0.00,WeatherDisplay:10.37,2014-08-22 04:34:00,
2014-08-22 06:39:00,63.3,60.3,29.92,WNW,282,2.0,3.0,90,0.00,CLR,,0.00,WeatherDisplay:10.37,2014-08-22 04:39:00,
2014-08-22 06:44:00,63.3,60.3,29.92,WNW,283,2.0,2.0,90,0.00,CLR,,0.00,WeatherDisplay:10.37,2014-08-22 04:44:00,
2014-08-22 06:49:00,63.5,60.5,29.92,WNW,282,0.0,1.0,90,0.00,CLR,,0.00,WeatherDisplay:10.37,2014-08-22 04:49:00,
2014-08-22 06:54:00,63.5,60.5,29.92,WNW,282,0.0,2.0,90,0.00,CLR,,0.00,WeatherDisplay:10.37,2014-08-22 04:54:00,
2014-08-22 06:59:00,63.7,60.4,29.92,West,280,0.0,2.0,89,0.00,CLR,,0.00,WeatherDisplay:10.37,2014-08-22 04:59:00,
2014-08-22 07:09:00,63.7,60.4,29.92,West,278,0.0,0.0,89,0.00,CLR,,0.00,WeatherDisplay:10.37,2014-08-22 05:09:00,
2014-08-22 07:14:00,63.7,60.4,29.93,West,278,1.0,3.0,89,0.00,CLR,,0.00,WeatherDisplay:10.37,2014-08-22 05:14:00,
2014-08-22 07:19:00,63.9,60.6,29.93,West,278,1.0,3.0,89,0.00,CLR,,0.00,WeatherDisplay:10.37,2014-08-22 05:19:00,
2014-08-22 07:24:00,63.9,60.6,29.93,West,272,1.0,5.0,89,0.00,CLR,,0.00,WeatherDisplay:10.37,2014-08-22 05:24:00,
2014-08-22 07:29:00,63.9,60.6,29.93,West,275,1.0,2.0,89,0.00,CLR,,0.00,WeatherDisplay:10.37,2014-08-22 05:29:00,
2014-08-22 07:34:00,64.0,60.7,29.93,WNW,290,1.0,3.0,89,0.00,CLR,,0.00,WeatherDisplay:10.37,2014-08-22 05:34:00,
2014-08-22 07:39:00,64.0,60.7,29.93,WNW,295,0.0,3.0,89,0.00,CLR,,0.00,WeatherDisplay:10.37,2014-08-22 05:39:00,
2014-08-22 07:49:00,64.0,60.7,29.93,NW,307,1.0,2.0,89,0.00,CLR,,0.00,WeatherDisplay:10.37,2014-08-22 05:49:00,
2014-08-22 07:54:00,64.0,60.7,29.93,NW,316,1.0,3.0,89,0.00,CLR,,0.00,WeatherDisplay:10.37,2014-08-22 05:54:00,
2014-08-22 07:59:00,63.9,60.6,29.93,NW,306,0.0,3.0,89,0.00,CLR,,0.00,WeatherDisplay:10.37,2014-08-22 05:59:00,
2014-08-22 08:04:00,63.9,60.6,29.93,WNW,293,0.0,3.0,89,0.00,CLR,,0.00,WeatherDisplay:10.37,2014-08-22 06:04:00,
2014-08-22 08:09:00,63.9,60.6,29.93,WNW,293,0.0,2.0,89,0.00,CLR,,0.00,WeatherDisplay:10.37,2014-08-22 06:09:00,
2014-08-22 08:19:00,63.9,60.2,29.94,NW,310,1.0,5.0,88,0.00,CLR,,0.00,WeatherDisplay:10.37,2014-08-22 06:19:00,
2014-08-22 08:29:00,63.9,60.2,29.94,WNW,303,2.0,5.0,88,0.00,CLR,,0.00,WeatherDisplay:10.37,2014-08-22 06:29:00,
2014-08-22 08:34:00,64.0,60.4,29.94,WNW,293,2.0,6.0,88,0.00,CLR,,0.00,WeatherDisplay:10.37,2014-08-22 06:34:00,
2014-08-22 08:39:00,64.0,60.4,29.94,WNW,292,2.0,6.0,88,0.00,CLR,,0.00,WeatherDisplay:10.37,2014-08-22 06:39:00,
2014-08-22 08:44:00,64.2,60.6,29.95,WNW,288,2.0,4.0,88,0.00,CLR,,0.00,WeatherDisplay:10.37,2014-08-22 06:44:00,
2014-08-22 08:49:00,64.4,60.4,29.95,WNW,291,2.0,5.0,87,0.00,CLR,,0.00,WeatherDisplay:10.37,2014-08-22 06:49:00,
2014-08-22 08:54:00,64.6,60.6,29.95,WNW,291,2.0,5.0,87,0.00,CLR,,0.00,WeatherDisplay:10.37,2014-08-22 06:54:00,
2014-08-22 08:59:00,64.7,60.8,29.95,WNW,296,2.0,4.0,87,0.00,CLR,,0.00,WeatherDisplay:10.37,2014-08-22 06:59:00,
2014-08-22 09:04:00,64.8,61.1,29.95,WNW,297,2.0,5.0,88,0.00,CLR,,0.00,WeatherDisplay:10.37,2014-08-22 07:04:00,
2014-08-22 09:09:00,65.1,61.2,29.95,WNW,289,1.0,5.0,87,0.00,CLR,,0.00,WeatherDisplay:10.37,2014-08-22 07:09:00,
2014-08-22 09:14:00,65.3,61.3,29.95,WNW,287,1.0,5.0,87,0.00,CLR,,0.00,WeatherDisplay:10.37,2014-08-22 07:14:00,
2014-08-22 09:19:00,65.6,61.6,29.95,WNW,294,2.0,5.0,87,0.00,CLR,,0.00,WeatherDisplay:10.37,2014-08-22 07:19:00,
2014-08-22 09:29:00,66.4,62.1,29.95,West,280,2.0,6.0,86,0.00,CLR,,0.00,WeatherDisplay:10.37,2014-08-22 07:29:00,
2014-08-22 09:34:00,66.7,62.1,29.95,West,271,2.0,6.0,85,0.00,CLR,,0.00,WeatherDisplay:10.37,2014-08-22 07:34:00,
2014-08-22 09:39:00,67.3,62.3,29.95,West,280,2.0,5.0,84,0.00,CLR,,0.00,WeatherDisplay:10.37,2014-08-22 07:39:00,
2014-08-22 09:44:00,67.5,62.1,29.95,WNW,283,2.0,7.0,83,0.00,CLR,,0.00,WeatherDisplay:10.37,2014-08-22 07:44:00,
2014-08-22 09:49:00,67.5,61.8,29.95,WNW,288,2.0,7.0,82,0.00,CLR,,0.00,WeatherDisplay:10.37,2014-08-22 07:49:00,
2014-08-22 09:54:00,67.6,62.6,29.95,West,276,2.0,6.0,84,0.00,CLR,,0.00,WeatherDisplay:10.37,2014-08-22 07:54:00,
2014-08-22 09:59:00,67.8,61.7,29.95,West,274,2.0,6.0,81,0.00,CLR,,0.00,WeatherDisplay:10.37,2014-08-22 07:59:00,
2014-08-22 10:04:00,67.7,61.7,29.95,WNW,283,2.0,5.0,81,0.00,CLR,,0.00,WeatherDisplay:10.37,2014-08-22 08:04:00,
2014-08-22 10:09:00,67.6,61.6,29.95,West,275,2.0,8.0,81,0.00,CLR,,0.00,WeatherDisplay:10.37,2014-08-22 08:09:00,
2014-08-22 10:19:00,67.5,61.9,29.96,West,265,2.0,6.0,82,0.00,CLR,,0.00,WeatherDisplay:10.37,2014-08-22 08:19:00,
2014-08-22 10:24:00,67.6,61.9,29.96,West,273,2.0,7.0,82,0.00,CLR,,0.00,WeatherDisplay:10.37,2014-08-22 08:24:00,
2014-08-22 10:29:00,68.0,62.3,29.96,West,276,2.0,6.0,82,0.00,CLR,,0.00,WeatherDisplay:10.37,2014-08-22 08:29:00,
2014-08-22 10:34:00,68.4,61.9,29.95,West,280,2.0,7.0,80,0.00,CLR,,0.00,WeatherDisplay:10.37,2014-08-22 08:34:00,
2014-08-22 10:39:00,68.8,62.4,29.95,West,277,3.0,5.0,80,0.00,CLR,,0.00,WeatherDisplay:10.37,2014-08-22 08:39:00,
2014-08-22 10:44:00,69.4,63.0,29.96,WNW,285,3.0,5.0,80,0.00,CLR,,0.00,WeatherDisplay:10.37,2014-08-22 08:44:00,
2014-08-22 10:54:00,70.3,62.4,29.96,West,280,2.0,6.0,76,0.00,CLR,,0.00,WeatherDisplay:10.37,2014-08-22 08:54:00,
2014-08-22 10:59:00,70.5,62.2,29.96,West,270,2.0,6.0,75,0.00,CLR,,0.00,WeatherDisplay:10.37,2014-08-22 08:59:00,
2014-08-22 11:09:00,70.1,61.8,29.96,WNW,283,2.0,6.0,75,0.00,CLR,,0.00,WeatherDisplay:10.37,2014-08-22 09:09:00,
2014-08-22 11:14:00,70.0,61.7,29.96,West,270,2.0,6.0,75,0.00,CLR,,0.00,WeatherDisplay:10.37,2014-08-22 09:14:00,
2014-08-22 11:19:00,69.6,61.7,29.96,West,272,2.0,7.0,76,0.00,CLR,,0.00,WeatherDisplay:10.37,2014-08-22 09:19:00,
2014-08-22 11:24:00,69.6,61.3,29.96,West,274,2.0,8.0,75,0.00,CLR,,0.00,WeatherDisplay:10.37,2014-08-22 09:24:00,
2014-08-22 11:29:00,69.6,61.7,29.96,West,273,2.0,7.0,76,0.00,CLR,,0.00,WeatherDisplay:10.37,2014-08-22 09:29:00,
2014-08-22 11:34:00,70.0,62.5,29.96,West,272,2.0,7.0,77,0.00,CLR,,0.00,WeatherDisplay:10.37,2014-08-22 09:34:00,
2014-08-22 11:39:00,70.3,62.4,29.96,West,263,2.0,7.0,76,0.00,CLR,,0.00,WeatherDisplay:10.37,2014-08-22 09:39:00,
2014-08-22 11:44:00,70.7,62.0,29.96,West,264,2.0,6.0,74,0.00,CLR,,0.00,WeatherDisplay:10.37,2014-08-22 09:44:00,
2014-08-22 11:49:00,70.9,63.0,29.96,WSW,242,2.0,2.0,76,0.00,CLR,,0.00,WeatherDisplay:10.37,2014-08-22 09:49:00,
2014-08-22 11:54:00,71.4,62.3,29.96,SW,218,2.0,6.0,73,0.00,CLR,,0.00,WeatherDisplay:10.37,2014-08-22 09:54:00,
2014-08-22 11:59:00,71.7,61.8,29.96,WSW,249,2.0,6.0,71,0.00,CLR,,0.00,WeatherDisplay:10.37,2014-08-22 09:59:00,
2014-08-22 12:04:00,71.6,62.1,29.96,West,275,2.0,6.0,72,0.00,CLR,,0.00,WeatherDisplay:10.37,2014-08-22 10:04:00,
2014-08-22 12:09:00,71.6,62.1,29.96,West,278,2.0,6.0,72,0.00,CLR,,0.00,WeatherDisplay:10.37,2014-08-22 10:09:00,
2014-08-22 12:14:00,71.6,62.1,29.96,West,278,2.0,7.0,72,0.00,CLR,,0.00,WeatherDisplay:10.37,2014-08-22 10:14:00,
2014-08-22 12:19:00,71.3,61.8,29.96,West,272,3.0,6.0,72,0.00,CLR,,0.00,WeatherDisplay:10.37,2014-08-22 10:19:00,
2014-08-22 12:24:00,71.1,62.8,29.96,West,264,3.0,6.0,75,0.00,CLR,,0.00,WeatherDisplay:10.37,2014-08-22 10:24:00,
2014-08-22 12:29:00,71.4,63.4,29.96,WSW,242,2.0,3.0,76,0.00,CLR,,0.00,WeatherDisplay:10.37,2014-08-22 10:29:00,
2014-08-22 12:34:00,72.0,62.5,29.96,WSW,237,2.0,7.0,72,0.00,CLR,,0.00,WeatherDisplay:10.37,2014-08-22 10:34:00,
2014-08-22 12:39:00,72.5,63.4,29.96,West,263,2.0,5.0,73,0.00,CLR,,0.00,WeatherDisplay:10.37,2014-08-22 10:39:00,
2014-08-22 12:44:00,73.0,63.1,29.96,West,270,2.0,7.0,71,0.00,CLR,,0.00,WeatherDisplay:10.37,2014-08-22 10:44:00,
2014-08-22 12:49:00,73.1,62.8,29.96,West,261,2.0,6.0,70,0.00,CLR,,0.00,WeatherDisplay:10.37,2014-08-22 10:49:00,
2014-08-22 12:54:00,73.2,63.2,29.96,WSW,252,2.0,5.0,71,0.00,CLR,,0.00,WeatherDisplay:10.37,2014-08-22 10:54:00,
2014-08-22 12:59:00,73.6,62.8,29.96,SW,223,2.0,7.0,69,0.00,CLR,,0.00,WeatherDisplay:10.37,2014-08-22 10:59:00,
2014-08-22 13:04:00,74.1,63.7,29.96,SW,215,2.0,9.0,70,0.00,CLR,,0.00,WeatherDisplay:10.37,2014-08-22 11:04:00,
2014-08-22 13:05:00,78.8,61.8,29.92,SSE,152,0.0,0.0,56,0.00,CLR,,0.00,WeatherDisplay:10.37,2014-08-22 11:05:00,
2014-08-22 13:09:00,74.9,63.7,29.96,SW,225,2.0,4.0,68,0.00,CLR,,0.00,WeatherDisplay:10.37,2014-08-22 11:09:00,
2014-08-22 13:10:00,79.0,62.9,30.91,South,178,2.0,2.0,58,0.00,CLR,,0.00,WeatherDisplay:10.37,2014-08-22 11:10:00,
2014-08-22 13:14:00,75.7,64.3,29.96,SSW,201,2.0,5.0,68,0.00,CLR,,0.00,WeatherDisplay:10.37,2014-08-22 11:14:00,
2014-08-22 13:19:00,76.3,63.2,29.96,SSW,207,2.0,6.0,64,0.00,CLR,,0.00,WeatherDisplay:10.37,2014-08-22 11:19:00,
2014-08-22 13:24:00,76.5,63.4,29.96,SW,227,2.0,6.0,64,0.00,CLR,,0.00,WeatherDisplay:10.37,2014-08-22 11:24:00,
2014-08-22 13:29:00,76.6,64.0,29.96,SSW,213,2.0,5.0,65,0.00,CLR,,0.00,WeatherDisplay:10.37,2014-08-22 11:29:00,
2014-08-22 13:34:00,77.0,63.9,29.95,South,183,2.0,6.0,64,0.00,CLR,,0.00,WeatherDisplay:10.37,2014-08-22 11:34:00,
2014-08-22 13:39:00,77.4,64.3,29.95,South,183,1.0,5.0,64,0.00,CLR,,0.00,WeatherDisplay:10.37,2014-08-22 11:39:00,
2014-08-22 13:44:00,77.5,63.0,29.95,SW,227,1.0,6.0,61,0.00,CLR,,0.00,WeatherDisplay:10.37,2014-08-22 11:44:00,
2014-08-22 13:49:00,77.5,63.5,29.95,SSW,205,2.0,5.0,62,0.00,CLR,,0.00,WeatherDisplay:10.37,2014-08-22 11:49:00,
2014-08-22 13:54:00,77.5,63.0,29.95,SSW,205,2.0,6.0,61,0.00,CLR,,0.00,WeatherDisplay:10.37,2014-08-22 11:54:00,
2014-08-22 13:59:00,77.2,62.2,29.95,West,259,2.0,6.0,60,0.00,CLR,,0.00,WeatherDisplay:10.37,2014-08-22 11:59:00,
2014-08-22 14:04:00,76.9,63.4,29.95,SSW,209,2.0,5.0,63,0.00,CLR,,0.00,WeatherDisplay:10.37,2014-08-22 12:04:00,
2014-08-22 14:09:00,77.2,62.7,29.95,South,184,2.0,5.0,61,0.00,CLR,,0.00,WeatherDisplay:10.37,2014-08-22 12:09:00,
2014-08-22 14:14:00,77.0,62.5,29.95,SW,233,2.0,6.0,61,0.00,CLR,,0.00,WeatherDisplay:10.37,2014-08-22 12:14:00,
2014-08-22 14:19:00,76.9,63.3,29.95,WSW,248,2.0,5.0,63,0.00,CLR,,0.00,WeatherDisplay:10.37,2014-08-22 12:19:00,
2014-08-22 14:24:00,77.2,62.2,29.95,WSW,250,2.0,8.0,60,0.00,CLR,,0.00,WeatherDisplay:10.37,2014-08-22 12:24:00,
2014-08-22 14:29:00,77.2,62.2,29.95,WSW,243,2.0,8.0,60,0.00,CLR,,0.00,WeatherDisplay:10.37,2014-08-22 12:29:00,
2014-08-22 14:34:00,77.4,61.9,29.95,WSW,237,2.0,4.0,59,0.00,CLR,,0.00,WeatherDisplay:10.37,2014-08-22 12:34:00,
2014-08-22 14:39:00,77.2,61.3,29.95,SW,230,2.0,5.0,58,0.00,CLR,,0.00,WeatherDisplay:10.37,2014-08-22 12:39:00,
2014-08-22 14:44:00,77.2,61.3,29.94,West,269,2.0,6.0,58,0.00,CLR,,0.00,WeatherDisplay:10.37,2014-08-22 12:44:00,
2014-08-22 14:49:00,76.9,62.4,29.94,WSW,252,2.0,4.0,61,0.00,CLR,,0.00,WeatherDisplay:10.37,2014-08-22 12:49:00,
2014-08-22 14:59:00,76.8,61.9,29.94,SSW,201,2.0,6.0,60,0.00,CLR,,0.00,WeatherDisplay:10.37,2014-08-22 12:59:00,
2014-08-22 15:04:00,76.6,62.2,29.94,SW,222,2.0,5.0,61,0.00,CLR,,0.00,WeatherDisplay:10.37,2014-08-22 13:04:00,
2014-08-22 15:09:00,76.6,62.2,29.94,SSW,198,2.0,7.0,61,0.00,CLR,,0.00,WeatherDisplay:10.37,2014-08-22 13:09:00,
2014-08-22 15:19:00,76.6,62.6,29.94,SSW,208,2.0,2.0,62,0.00,CLR,,0.00,WeatherDisplay:10.37,2014-08-22 13:19:00,
2014-08-22 15:24:00,76.6,62.6,29.94,SSW,202,2.0,2.0,62,0.00,CLR,,0.00,WeatherDisplay:10.37,2014-08-22 13:24:00,
2014-08-22 15:29:00,77.0,61.6,29.93,South,182,2.0,5.0,59,0.00,CLR,,0.00,WeatherDisplay:10.37,2014-08-22 13:29:00,
2014-08-22 15:34:00,77.2,61.7,29.93,SSE,151,2.0,6.0,59,0.00,CLR,,0.00,WeatherDisplay:10.37,2014-08-22 13:34:00,
2014-08-22 15:39:00,77.3,62.3,29.93,SE,134,2.0,6.0,60,0.00,CLR,,0.00,WeatherDisplay:10.37,2014-08-22 13:39:00,
2014-08-22 15:44:00,77.5,62.1,29.93,SSE,150,2.0,5.0,59,0.00,CLR,,0.00,WeatherDisplay:10.37,2014-08-22 13:44:00,
2014-08-22 15:49:00,77.8,62.3,29.93,SSE,158,2.0,3.0,59,0.00,CLR,,0.00,WeatherDisplay:10.37,2014-08-22 13:49:00,
2014-08-22 15:54:00,77.9,61.5,29.93,SSE,158,2.0,5.0,57,0.00,CLR,,0.00,WeatherDisplay:10.37,2014-08-22 13:54:00,
2014-08-22 15:59:00,77.9,62.4,29.93,SSE,149,2.0,5.0,59,0.00,CLR,,0.00,WeatherDisplay:10.37,2014-08-22 13:59:00,
2014-08-22 16:04:00,78.0,63.0,29.93,SE,144,2.0,3.0,60,0.00,CLR,,0.00,WeatherDisplay:10.37,2014-08-22 14:04:00,
2014-08-22 16:09:00,78.1,62.1,29.93,SSE,148,1.0,6.0,58,0.00,CLR,,0.00,WeatherDisplay:10.37,2014-08-22 14:09:00,
2014-08-22 16:14:00,78.1,62.1,29.92,SSE,153,1.0,6.0,58,0.00,CLR,,0.00,WeatherDisplay:10.37,2014-08-22 14:14:00,
2014-08-22 16:19:00,78.2,61.2,29.92,SE,141,2.0,8.0,56,0.00,CLR,,0.00,WeatherDisplay:10.37,2014-08-22 14:19:00,
2014-08-22 16:24:00,78.3,62.3,29.92,SSE,153,2.0,5.0,58,0.00,CLR,,0.00,WeatherDisplay:10.37,2014-08-22 14:24:00,
2014-08-22 16:29:00,78.4,62.4,29.92,SSE,157,2.0,3.0,58,0.00,CLR,,0.00,WeatherDisplay:10.37,2014-08-22 14:29:00,
2014-08-22 16:34:00,78.7,62.6,29.92,SSE,149,2.0,3.0,58,0.00,CLR,,0.00,WeatherDisplay:10.37,2014-08-22 14:34:00,
2014-08-22 16:39:00,78.8,61.8,29.92,SSE,151,0.0,5.0,56,0.00,CLR,,0.00,WeatherDisplay:10.37,2014-08-22 14:39:00,
2014-08-22 16:44:00,78.8,63.3,29.92,WSW,249,0.0,2.0,59,0.00,CLR,,0.00,WeatherDisplay:10.37,2014-08-22 14:44:00,
2014-08-22 16:49:00,78.6,62.6,29.92,WSW,250,1.0,5.0,58,0.00,CLR,,0.00,WeatherDisplay:10.37,2014-08-22 14:49:00,
2014-08-22 16:54:00,78.6,61.6,29.92,SE,142,1.0,6.0,56,0.00,CLR,,0.00,WeatherDisplay:10.37,2014-08-22 14:54:00,
2014-08-22 16:59:00,78.6,61.1,29.92,SSE,158,2.0,5.0,55,0.00,CLR,,0.00,WeatherDisplay:10.37,2014-08-22 14:59:00,
2014-08-22 17:19:00,79.5,62.4,29.92,SSE,157,1.0,2.0,56,0.00,CLR,,0.00,WeatherDisplay:10.37,2014-08-22 15:19:00,
2014-08-22 17:24:00,79.5,62.4,29.92,South,174,1.0,3.0,56,0.00,CLR,,0.00,WeatherDisplay:10.37,2014-08-22 15:24:00,
2014-08-22 17:29:00,79.4,60.8,29.92,SSE,167,1.0,5.0,53,0.00,CLR,,0.00,WeatherDisplay:10.37,2014-08-22 15:29:00,
2014-08-22 17:34:00,79.3,62.7,29.92,SE,146,1.0,5.0,57,0.00,CLR,,0.00,WeatherDisplay:10.37,2014-08-22 15:34:00,
2014-08-22 17:39:00,79.0,61.9,29.92,ESE,123,2.0,5.0,56,0.00,CLR,,0.00,WeatherDisplay:10.37,2014-08-22 15:39:00,
2014-08-22 17:44:00,78.6,60.6,29.92,SE,128,2.0,6.0,54,0.00,CLR,,0.00,WeatherDisplay:10.37,2014-08-22 15:44:00,
2014-08-22 17:49:00,78.3,62.3,29.92,SE,141,1.0,3.0,58,0.00,CLR,,0.00,WeatherDisplay:10.37,2014-08-22 15:49:00,
2014-08-22 17:54:00,78.0,60.5,29.92,SE,138,1.0,6.0,55,0.00,CLR,,0.00,WeatherDisplay:10.37,2014-08-22 15:54:00,
2014-08-22 17:59:00,77.7,62.7,29.92,SE,146,2.0,3.0,60,0.00,CLR,,0.00,WeatherDisplay:10.37,2014-08-22 15:59:00,
2014-08-22 18:04:00,77.5,60.6,29.92,SE,142,2.0,5.0,56,0.00,CLR,,0.00,WeatherDisplay:10.37,2014-08-22 16:04:00,
2014-08-22 18:09:00,77.2,60.8,29.92,SE,132,1.0,5.0,57,0.00,CLR,,0.00,WeatherDisplay:10.37,2014-08-22 16:09:00,
2014-08-22 18:14:00,76.9,61.4,29.91,SE,131,1.0,5.0,59,0.00,CLR,,0.00,WeatherDisplay:10.37,2014-08-22 16:14:00,
2014-08-22 18:19:00,76.6,61.7,29.91,SE,130,1.0,2.0,60,0.00,CLR,,0.00,WeatherDisplay:10.37,2014-08-22 16:19:00,
2014-08-22 18:29:00,76.4,62.4,29.91,South,183,0.0,2.0,62,0.00,CLR,,0.00,WeatherDisplay:10.37,2014-08-22 16:29:00,
2014-08-22 18:34:00,76.1,61.2,29.91,SSE,154,0.0,5.0,60,0.00,CLR,,0.00,WeatherDisplay:10.37,2014-08-22 16:34:00,
2014-08-22 18:39:00,75.7,62.2,29.91,SE,136,0.0,3.0,63,0.00,CLR,,0.00,WeatherDisplay:10.37,2014-08-22 16:39:00,
2014-08-22 18:44:00,75.6,61.7,29.91,SSE,151,0.0,0.0,62,0.00,CLR,,0.00,WeatherDisplay:10.37,2014-08-22 16:44:00,
2014-08-22 18:49:00,75.4,62.4,29.91,SSE,150,0.0,3.0,64,0.00,CLR,,0.00,WeatherDisplay:10.37,2014-08-22 16:49:00,
2014-08-22 18:54:00,75.1,61.2,29.91,SE,140,0.0,5.0,62,0.00,CLR,,0.00,WeatherDisplay:10.37,2014-08-22 16:54:00,
2014-08-22 18:59:00,74.9,61.4,29.91,SE,126,1.0,3.0,63,0.00,CLR,,0.00,WeatherDisplay:10.37,2014-08-22 16:59:00,
2014-08-22 19:04:00,74.7,62.1,29.91,ESE,121,1.0,2.0,65,0.00,CLR,,0.00,WeatherDisplay:10.37,2014-08-22 17:04:00,
2014-08-22 19:09:00,74.5,62.8,29.91,ESE,122,0.0,1.0,67,0.00,CLR,,0.00,WeatherDisplay:10.37,2014-08-22 17:09:00,
2014-08-22 19:14:00,74.3,62.7,29.91,ESE,122,0.0,2.0,67,0.00,CLR,,0.00,WeatherDisplay:10.37,2014-08-22 17:14:00,
2014-08-22 19:19:00,74.1,62.5,29.91,ESE,122,0.0,0.0,67,0.00,CLR,,0.00,WeatherDisplay:10.37,2014-08-22 17:19:00,
2014-08-22 19:24:00,73.9,63.9,29.91,ESE,122,0.0,0.0,71,0.00,CLR,,0.00,WeatherDisplay:10.37,2014-08-22 17:24:00,
2014-08-22 19:29:00,73.9,64.7,29.91,ESE,122,0.0,0.0,73,0.00,CLR,,0.00,WeatherDisplay:10.37,2014-08-22 17:29:00,
2014-08-22 19:34:00,73.8,64.6,29.91,ESE,122,0.0,0.0,73,0.00,CLR,,0.00,WeatherDisplay:10.37,2014-08-22 17:34:00,
2014-08-22 19:39:00,73.6,64.8,29.91,ESE,122,0.0,0.0,74,0.00,CLR,,0.00,WeatherDisplay:10.37,2014-08-22 17:39:00,
2014-08-22 19:44:00,73.2,64.4,29.92,ESE,122,0.0,0.0,74,0.00,CLR,,0.00,WeatherDisplay:10.37,2014-08-22 17:44:00,
2014-08-22 19:49:00,73.0,63.9,29.92,ESE,122,0.0,0.0,73,0.00,CLR,,0.00,WeatherDisplay:10.37,2014-08-22 17:49:00,
2014-08-22 19:54:00,72.7,64.3,29.92,ESE,122,0.0,0.0,75,0.00,CLR,,0.00,WeatherDisplay:10.37,2014-08-22 17:54:00,
2014-08-22 19:59:00,72.3,63.9,29.92,ESE,122,0.0,0.0,75,0.00,CLR,,0.00,WeatherDisplay:10.37,2014-08-22 17:59:00,
2014-08-22 20:09:00,71.4,63.5,29.92,ESE,122,0.0,0.0,76,0.00,CLR,,0.00,WeatherDisplay:10.37,2014-08-22 18:09:00,
2014-08-22 20:19:00,70.3,62.8,29.92,ESE,122,0.0,1.0,77,0.00,CLR,,0.00,WeatherDisplay:10.37,2014-08-22 18:19:00,
2014-08-22 20:24:00,69.7,62.6,29.92,ESE,122,0.0,0.0,78,0.00,CLR,,0.00,WeatherDisplay:10.37,2014-08-22 18:24:00,
2014-08-22 20:29:00,69.3,62.8,29.92,ESE,122,0.0,0.0,80,0.00,CLR,,0.00,WeatherDisplay:10.37,2014-08-22 18:29:00,
2014-08-22 20:34:00,68.8,62.4,29.92,ESE,122,0.0,0.0,80,0.00,CLR,,0.00,WeatherDisplay:10.37,2014-08-22 18:34:00,
2014-08-22 20:39:00,68.4,62.3,29.92,ESE,122,0.0,0.0,81,0.00,CLR,,0.00,WeatherDisplay:10.37,2014-08-22 18:39:00,
2014-08-22 20:44:00,68.1,62.4,29.92,ESE,122,0.0,0.0,82,0.00,CLR,,0.00,WeatherDisplay:10.37,2014-08-22 18:44:00,
2014-08-22 20:49:00,67.7,62.3,29.92,ESE,122,0.0,0.0,83,0.00,CLR,,0.00,WeatherDisplay:10.37,2014-08-22 18:49:00,
2014-08-22 20:54:00,67.5,62.1,29.92,ESE,122,0.0,0.0,83,0.00,CLR,,0.00,WeatherDisplay:10.37,2014-08-22 18:54:00,
2014-08-22 20:59:00,67.1,62.1,29.92,ESE,122,0.0,0.0,84,0.00,CLR,,0.00,WeatherDisplay:10.37,2014-08-22 18:59:00,
2014-08-22 21:04:00,66.9,62.3,29.93,ESE,122,0.0,0.0,85,0.00,CLR,,0.00,WeatherDisplay:10.37,2014-08-22 19:04:00,
2014-08-22 21:09:00,66.7,62.4,29.93,ESE,122,0.0,0.0,86,0.00,CLR,,0.00,WeatherDisplay:10.37,2014-08-22 19:09:00,
2014-08-22 21:14:00,66.6,62.2,29.93,ESE,122,0.0,1.0,86,0.00,CLR,,0.00,WeatherDisplay:10.37,2014-08-22 19:14:00,